Regional Weather Roundup
Issued by NWS Bismarck, ND

Home | Current Version | Previous Version | Text Only | Print | Product List | Glossary On
Versions: 1 2 3 4 5 6 7 8 9 10 11 12 13 14 15 16 17 18 19 20 21 22 23 24 25 26 27 28 29 30 31 32 33 34 35 36 37 38 39 40 41 42 43 44 45 46 47 48 49 50
000
ASUS43 KBIS 180610
RWRBIS

NWR BROADCAST TEXT
NATIONAL WEATHER SERVICE BISMARCK ND
100 AM CDT WED OCT 18 2017

NOTE: "FAIR" INDICATES FEW OR NO CLOUDS BELOW 12,000 FEET WITH NO
SIGNIFICANT WEATHER AND/OR OBSTRUCTIONS TO VISIBILITY.


CITY           SKY/WX    TMP DP  RH WIND       PRES   REMARKS
WILLISTON      PTCLDY    63  25  23 SW14G23   29.54R
MINOT          CLOUDY    64  26  23 S12G20    29.48S
MINOT AFB      CLOUDY    62  27  26 SW15      29.45S
BISMARCK       MOCLDY    60  26  27 S7        29.61F
DICKINSON      MOCLDY    58  25  28 S15       29.60F
GARRISON         N/A     60  30  32 SW12      29.54F
HETTINGER ARPT CLOUDY    59  25  27 SW9       29.68S
JAMESTOWN      CLOUDY    58  36  43 S9        29.61F
CARRINGTON     FAIR      61  34  36 SW17G25   29.60F
HAZEN          FAIR      61  23  23 S16       29.58S
LINTON         FAIR      54  36  50 S9        29.66F
RUGBY          FAIR      59  28  31 S12G18    29.49F
STANLEY        FAIR      64  25  22 SW21G29   29.53R
TIOGA          FAIR      61  23  23 SW24G30   29.52R
WATFORD CITY   FAIR      63  25  23 SW16G23   29.55R
$$

CITY           SKY/WX    TMP DP  RH WIND       PRES   REMARKS
GRAND FORKS    CLOUDY    51  37  58 S10       29.56F
GRAND FORKS AF CLOUDY    62  33  34 SW13      29.56F
DEVILS LAKE    CLOUDY    58  38  47 SW15      29.54F
FARGO          CLOUDY    56  42  59 S13       29.65F
CANDO          FAIR      55  28  35 S13       29.52F
CAVALIER       FAIR      54  32  43 S7        29.49F
GRAFTON        FAIR      52  34  50 S9        29.54F
GWINNER        CLEAR     54  41  62 SW9       29.68F
LANGDON        FAIR      54  30  40 SW18      29.51F
ROLLA          FAIR      55  27  33 SW14      29.49F
WALHALLA       FAIR     N/A N/A N/A SW15G22   29.47F
$$

CITY           SKY/WX    TMP DP  RH WIND       PRES   REMARKS
ABERDEEN       CLOUDY    54  41  61 S9        29.72F
MOBRIDGE       PTCLDY    49  41  74 SE5       29.65F
BUFFALO          N/A     56  26  31 W16       29.64F
RAPID CITY     CLOUDY    50  25  37 S7        29.78F
GLASGOW        PTCLDY    55  35  47 NW37G51   29.69R
SIDNEY         MOCLDY    66  25  21 W25G33    29.58R
WOLF POINT     PTCLDY    67  26  21 NW37G53   29.62R
GLENDIVE       CLOUDY    63  23  21 W15G26    29.65R
MILES CITY     CLOUDY    60  25  26 SW13      29.69R
BAKER          CLOUDY    66  19  16 SW20G28   29.68R
$$

CITY           SKY/WX    TMP DP  RH WIND       PRES   REMARKS
BILLINGS       CLOUDY    65  18  16 W16       29.75R
GREAT FALLS    CLOUDY    57  28  33 W24G38    29.84R
REGINA         PTCLDY    50  37  62 W39G56    29.42R
ESTEVAN        PTCLDY    63  27  25 W26G40    29.46R
$$





USA.gov is the U.S. government's official web portal to all federal, state and local government web resources and services.